Date,TemperatureHighF,TemperatureAvgF,TemperatureLowF,DewpointHighF,DewpointAvgF,DewpointLowF,HumidityHigh,HumidityAvg,HumidityLow,PressureMaxIn,PressureMinIn,WindSpeedMaxMPH,WindSpeedAvgMPH,GustSpeedMaxMPH,PrecipitationSumIn
2013-1-1,74.5,65.0,57.6,59.7,51.7,46.7,83,65,38,30.21,30.06,0,0,0,0.00
2013-1-2,74.8,68.1,63.7,65.8,60.4,54.8,83,77,63,30.09,30.04,0,0,0,0.00
2013-1-3,76.6,69.2,62.4,67.4,60.0,52.2,84,74,44,30.18,30.04,0,0,0,0.00
2013-1-4,64.8,62.0,59.7,57.5,55.8,54.2,84,80,72,30.27,30.15,0,0,0,0.00
2013-1-5,74.7,65.4,59.9,58.6,55.1,52.1,81,70,48,30.30,30.18,0,0,0,0.00
2013-1-6,77.7,69.3,64.8,68.8,61.6,58.4,85,77,58,30.24,30.09,0,0,0,0.00
2013-1-7,68.2,65.2,63.3,62.1,57.8,54.4,83,77,70,30.21,30.12,0,0,0,0.00
2013-1-8,80.8,70.5,63.5,67.6,59.9,55.6,85,71,43,30.21,30.12,0,0,0,0.00
2013-1-9,82.9,74.9,70.7,70.0,62.7,55.9,85,68,41,30.33,30.18,0,0,0,0.00
2013-1-10,80.1,73.4,69.3,66.7,60.0,51.3,82,65,37,30.33,30.24,0,0,0,0.00
2013-1-11,81.1,72.4,67.3,65.1,57.6,48.1,80,62,32,30.30,30.18,0,0,0,0.00
2013-1-12,80.1,72.2,67.1,64.7,60.8,54.7,81,69,42,30.24,30.12,0,0,0,0.00
2013-1-13,79.0,72.0,67.5,64.7,59.6,53.7,80,66,43,30.18,30.09,0,0,0,0.00
2013-1-14,78.4,70.8,65.7,62.8,55.4,46.8,80,61,33,30.21,30.15,0,0,0,0.00
2013-1-15,78.1,69.8,63.9,64.2,56.7,51.3,80,65,41,30.18,30.09,0,0,0,0.00
2013-1-16,78.8,71.0,66.4,64.2,58.0,47.4,82,66,34,30.15,30.04,0,0,0,0.00
2013-1-17,72.7,65.8,58.1,67.2,54.2,37.4,83,68,42,30.18,30.06,0,0,0,0.00
2013-1-18,62.8,56.0,44.8,54.1,39.8,26.6,78,55,44,30.30,30.18,0,0,0,0.00
2013-1-19,72.5,65.0,56.5,56.8,50.0,45.1,75,59,44,30.27,30.12,0,0,0,0.00
2013-1-20,73.9,66.9,63.0,60.0,56.2,51.3,79,69,46,30.21,30.06,0,0,0,0.00
2013-1-21,72.7,66.3,63.3,58.3,52.2,44.0,73,61,49,30.12,30.06,0,0,0,0.00
2013-1-22,65.5,61.5,55.9,44.4,33.2,22.8,51,36,23,30.30,30.09,0,0,0,0.00
2013-1-23,68.2,58.3,50.2,40.2,29.8,23.6,60,35,20,30.36,30.27,0,0,0,0.00
2013-1-24,69.8,58.9,48.6,49.1,40.1,33.0,73,51,31,30.33,30.24,0,0,0,0.00
2013-1-25,71.6,61.4,53.8,55.6,45.3,33.3,85,60,25,30.30,30.21,0,0,0,0.00
2013-1-26,71.8,62.0,53.6,54.4,48.7,41.9,82,64,35,30.30,30.18,0,0,0,0.00
2013-1-27,77.5,65.8,57.9,59.0,47.6,37.0,85,57,24,30.30,30.21,0,0,0,0.00
2013-1-28,79.9,68.9,62.4,60.5,53.8,48.0,81,61,34,30.33,30.24,0,0,0,0.00
2013-1-29,79.3,70.6,63.5,65.1,57.6,52.9,84,65,41,30.27,30.15,0,0,0,0.00
2013-1-30,77.0,71.8,67.6,64.0,60.4,56.1,79,68,52,30.15,29.98,0,0,0,0.00
2013-1-31,70.9,60.9,54.5,64.0,38.8,22.2,80,47,25,30.27,30.01,0,0,0,0.00
2013-2-1,67.5,57.1,48.9,35.8,27.9,20.1,51,34,17,30.36,30.24,0,0,0,0.00
2013-2-2,70.5,58.5,48.7,40.7,33.2,25.8,57,40,22,30.30,30.15,0,0,0,0.00
2013-2-3,68.7,59.0,49.8,51.0,42.3,36.9,75,55,36,30.21,30.12,0,0,0,0.00
2013-2-4,68.5,57.6,49.3,49.5,38.1,28.0,79,52,22,30.15,30.06,0,0,0,0.00
2013-2-5,74.7,61.4,50.4,51.9,39.4,30.5,71,46,27,30.12,30.01,0,0,0,0.00
2013-2-6,77.5,67.3,58.8,59.8,52.0,45.0,77,60,34,30.12,30.04,0,0,0,0.00
2013-2-7,77.2,69.4,63.9,64.2,58.1,50.2,83,69,42,30.09,29.98,0,0,0,0.00
2013-2-8,74.1,68.3,62.4,63.5,56.6,49.1,83,67,42,30.12,29.95,0,0,0,0.00
2013-2-9,75.4,65.8,58.5,54.9,47.8,41.7,81,55,31,30.21,30.09,0,0,0,0.00
2013-2-10,81.0,69.7,62.6,54.7,51.6,47.1,73,55,31,30.24,30.18,0,0,0,0.00
2013-2-11,78.4,70.7,64.2,62.8,57.0,52.8,79,63,42,30.21,30.15,0,0,0,0.00
2013-2-12,78.8,72.9,69.1,66.3,63.3,60.0,81,73,53,30.15,30.04,0,0,0,0.00
2013-2-13,78.1,72.0,65.3,68.1,63.1,46.5,83,74,50,30.04,29.95,0,0,0,0.00
2013-2-14,67.1,64.3,62.2,59.0,52.7,44.2,82,67,47,30.06,29.98,0,0,0,0.00
2013-2-15,64.9,61.3,59.7,57.2,52.0,43.7,83,72,47,30.09,29.98,0,0,0,0.00
2013-2-16,67.8,59.8,56.3,49.6,40.1,25.3,70,50,28,30.15,29.98,0,0,0,0.00
2013-2-17,56.5,50.1,44.2,28.7,19.9,14.0,44,30,22,30.33,30.15,0,0,0,0.00
2013-2-18,70.7,54.8,39.2,37.6,27.2,17.5,52,36,23,30.33,30.21,0,0,0,0.00
2013-2-19,75.4,64.2,54.1,57.7,46.8,36.9,79,55,37,30.21,30.12,0,0,0,0.00
2013-2-20,76.1,67.3,62.6,62.2,56.3,49.5,87,70,40,30.15,30.04,0,0,0,0.00
2013-2-21,80.4,69.3,60.8,61.2,55.4,50.2,82,63,37,30.12,30.04,0,0,0,0.00
2013-2-22,80.6,72.3,65.1,66.7,60.7,57.4,84,69,46,30.09,30.04,0,0,0,0.00
2013-2-23,72.5,71.0,69.8,65.6,64.7,63.7,82,81,78,30.06,29.98,0,0,0,0.00
2013-2-24,80.2,72.6,69.3,66.9,64.4,60.2,84,76,53,30.04,29.95,0,0,0,0.00
2013-2-25,80.4,73.5,68.5,67.4,64.5,61.6,84,74,55,29.98,29.86,0,0,0,0.00
2013-2-26,75.0,72.1,68.5,68.1,63.7,57.6,82,75,60,29.98,29.80,0,0,0,0.00
2013-2-27,71.8,67.1,61.9,58.9,50.1,44.2,71,55,38,30.04,29.95,0,0,0,0.00
2013-2-28,72.3,65.8,61.7,48.5,43.1,35.5,61,45,32,30.04,29.98,0,0,0,0.00
2013-3-1,62.8,59.8,56.8,40.6,34.0,25.4,47,38,29,30.06,29.98,0,0,0,0.00
2013-3-2,61.5,56.5,50.7,32.9,30.0,26.7,47,36,29,30.09,30.01,0,0,0,0.00
2013-3-3,56.1,51.3,44.1,29.5,26.0,20.0,39,37,35,30.18,30.01,0,0,0,0.00
2013-3-4,63.0,54.4,45.5,34.9,27.7,18.3,56,36,24,30.24,30.12,0,0,0,0.00
2013-3-5,72.5,60.1,46.6,59.3,43.1,31.3,81,55,34,30.18,30.09,0,0,0,0.00
2013-3-6,66.6,60.7,55.9,62.1,40.3,28.1,86,50,28,30.15,30.01,0,0,0,0.00
2013-3-7,61.2,55.0,49.3,37.8,29.3,22.9,58,38,25,30.24,30.15,0,0,0,0.00
2013-3-8,70.9,58.2,48.4,42.6,37.0,25.8,76,49,22,30.24,30.12,0,0,0,0.00
2013-3-9,74.7,63.1,52.2,44.1,37.3,31.0,69,41,21,30.21,30.12,0,0,0,0.00
2013-3-10,80.1,66.6,59.0,49.5,43.5,37.9,64,45,23,30.18,30.06,0,0,0,0.00
2013-3-11,76.1,67.8,60.3,56.5,51.0,45.2,78,57,34,30.12,29.95,0,0,0,0.00
2013-3-12,69.1,65.2,59.5,65.0,54.5,42.6,88,69,50,30.06,29.89,0,0,0,0.00
2013-3-13,70.7,62.4,58.1,46.1,36.2,27.8,61,39,22,30.21,30.06,0,0,0,0.00
2013-3-14,65.5,59.3,54.9,41.2,29.0,20.2,49,32,20,30.27,30.18,0,0,0,0.00
2013-3-15,70.2,58.1,47.7,40.3,32.6,22.7,70,41,17,30.27,30.18,0,0,0,0.00
2013-3-16,73.8,60.4,50.2,46.3,39.7,33.7,64,48,25,30.21,30.09,0,0,0,0.00
2013-3-17,73.4,69.1,66.4,52.0,49.3,45.7,59,50,40,30.09,30.04,0,0,0,0.00
2013-3-18,72.0,66.8,61.9,64.6,59.5,51.4,85,78,59,30.06,29.92,0,0,0,0.00
2013-3-19,80.6,70.0,65.3,64.4,58.1,51.1,84,68,39,30.06,29.92,0,0,0,0.00
2013-3-20,72.0,67.2,61.7,60.9,56.5,43.9,84,70,37,30.01,29.86,0,0,0,0.00
2013-3-21,68.2,61.4,54.1,56.8,37.4,27.1,83,45,23,30.04,29.92,0,0,0,0.00
2013-3-22,75.4,62.6,50.4,64.6,44.6,33.1,84,53,33,30.01,29.92,0,0,0,0.00
2013-3-23,71.4,68.2,66.7,66.3,63.7,62.3,88,86,83,30.01,29.89,0,0,0,0.00
2013-3-24,75.7,72.6,70.5,74.2,69.5,65.3,98,90,82,29.89,29.74,0,0,0,0.00
2013-3-25,73.4,65.6,58.8,72.8,45.1,26.2,98,53,24,30.09,29.80,0,0,0,0.00
2013-3-26,59.7,56.5,52.2,35.0,27.0,22.6,40,32,26,30.27,30.06,0,0,0,0.00
2013-3-27,58.5,52.6,46.6,29.8,24.5,17.9,45,33,26,30.33,30.21,0,0,0,0.00
2013-3-28,68.4,56.4,45.5,36.4,29.2,18.5,69,39,15,30.27,30.21,0,0,0,0.00
2013-3-29,74.1,61.6,50.5,41.5,33.6,22.6,63,38,16,30.30,30.21,0,0,0,0.00
2013-3-30,74.8,64.2,53.8,48.7,40.1,34.7,65,43,24,30.27,30.15,0,0,0,0.00
2013-3-31,77.2,67.7,59.9,55.2,46.2,40.2,66,47,31,30.21,30.06,0,0,0,0.00
2013-4-1,78.6,71.7,66.9,63.9,59.4,54.1,79,66,46,30.09,30.01,0,0,0,0.00
2013-4-2,77.4,70.7,66.0,62.6,54.1,41.8,82,59,29,30.12,30.04,0,0,0,0.00
2013-4-3,80.6,72.0,65.1,64.7,58.7,50.1,84,65,35,30.12,30.01,0,0,0,0.00
2013-4-4,71.6,69.3,66.9,66.0,63.4,60.1,85,82,74,30.15,29.92,0,0,0,0.00
2013-4-5,71.6,67.9,63.7,63.5,54.4,44.5,84,64,38,30.04,29.89,0,0,0,0.00
2013-4-6,72.0,65.2,59.5,55.7,47.2,42.0,69,53,35,30.12,30.04,0,0,0,0.00
2013-4-7,79.9,70.6,62.8,58.1,50.3,40.4,81,52,26,30.18,30.06,0,0,0,0.00
2013-4-8,82.4,72.7,64.9,58.1,51.2,39.4,72,49,23,30.18,30.09,0,0,0,0.00
2013-4-9,83.5,73.4,65.7,61.0,53.0,46.2,77,51,28,30.18,30.09,0,0,0,0.00
2013-4-10,84.9,74.8,66.2,61.9,55.1,50.2,79,53,32,30.18,30.06,0,0,0,0.00
2013-4-11,86.7,77.3,71.8,67.9,62.2,53.4,83,62,37,30.06,29.92,0,0,0,0.00
2013-4-12,78.4,76.1,73.8,69.4,67.7,61.4,81,76,65,30.04,29.89,0,0,0,0.00
2013-4-13,82.9,75.1,71.1,65.9,60.7,54.3,78,62,38,30.06,29.95,0,0,0,0.00
2013-4-14,81.5,75.8,70.7,70.7,64.2,50.6,81,68,48,30.04,29.92,0,0,0,0.00
2013-4-15,85.8,78.4,69.3,68.0,56.4,51.3,76,48,32,30.15,29.98,0,0,0,0.00
2013-4-16,86.9,78.4,71.2,67.0,62.0,53.1,81,59,32,30.21,30.09,0,0,0,0.00
2013-4-17,86.0,75.9,70.9,68.0,54.0,41.0,76,50,21,30.21,30.09,0,0,0,0.00
2013-4-18,86.5,78.0,69.3,64.8,57.8,51.5,77,52,31,30.12,30.04,0,0,0,0.00
2013-4-19,84.6,78.7,72.7,69.4,64.5,58.8,81,63,42,30.09,30.01,0,0,0,0.00
2013-4-20,76.5,72.7,67.1,68.9,58.4,51.8,79,62,46,30.18,30.04,0,0,0,0.00
2013-4-21,82.0,71.4,62.8,64.9,57.2,51.3,80,62,36,30.18,30.06,0,0,0,0.00
2013-4-22,80.8,73.1,68.5,65.8,60.8,50.9,84,67,37,30.15,30.04,0,0,0,0.00
2013-4-23,83.1,73.9,67.1,60.5,54.7,45.8,78,54,29,30.15,30.06,0,0,0,0.00
2013-4-24,82.2,73.3,64.9,60.3,53.4,41.5,76,52,24,30.21,30.12,0,0,0,0.00
2013-4-25,82.0,74.9,67.6,60.5,55.8,47.7,74,53,32,30.27,30.15,0,0,0,0.00
2013-4-26,82.8,75.3,67.1,62.2,54.8,46.6,72,50,32,30.30,30.21,0,0,0,0.00
2013-4-27,84.4,76.1,70.2,63.5,55.1,46.1,78,50,28,30.30,30.15,0,0,0,0.00
2013-4-28,85.6,76.3,67.8,58.9,53.2,46.9,70,47,29,30.18,30.06,0,0,0,0.00
2013-4-29,82.8,75.2,69.4,56.5,53.4,48.0,61,47,37,30.09,30.04,0,0,0,0.00
2013-4-30,85.5,79.2,71.2,66.3,60.4,54.2,83,56,36,30.06,29.98,0,0,0,0.00
2013-5-1,73.9,70.4,66.6,67.7,65.0,61.6,85,83,78,30.06,29.98,0,0,0,0.00
2013-5-2,79.0,71.7,66.9,66.4,62.3,55.6,86,74,46,30.04,29.89,0,0,0,0.00
2013-5-3,80.1,73.5,69.1,63.6,60.0,53.7,79,64,41,29.89,29.80,0,0,0,0.00
2013-5-4,77.7,73.1,68.5,63.8,59.7,52.9,79,64,44,29.89,29.77,0,0,0,0.00
2013-5-5,75.6,70.3,66.0,62.4,44.6,33.8,79,42,23,30.01,29.89,0,0,0,0.00
2013-5-6,73.9,70.6,66.6,56.7,45.7,41.1,64,42,32,30.09,29.98,0,0,0,0.00
2013-5-7,75.9,70.0,63.3,53.3,45.6,41.7,67,43,31,30.12,30.04,0,0,0,0.00
2013-5-8,77.9,71.9,65.1,57.4,48.9,43.5,70,46,30,30.21,30.09,0,0,0,0.00
2013-5-9,82.2,73.6,65.8,60.0,52.6,39.4,74,50,23,30.21,30.12,0,0,0,0.00
2013-5-10,86.2,76.5,67.3,67.8,58.5,47.8,87,57,30,30.18,30.09,0,0,0,0.00
2013-5-11,85.5,78.4,73.4,71.4,67.1,60.5,83,69,45,30.15,30.06,0,0,0,0.00
2013-5-12,83.8,77.9,73.9,70.2,62.9,56.8,80,62,43,30.12,30.01,0,0,0,0.00
2013-5-13,81.5,75.2,70.9,63.6,50.9,34.3,74,46,21,30.21,30.09,0,0,0,0.00
2013-5-14,81.1,73.2,63.9,44.0,36.6,27.4,41,27,17,30.24,30.18,0,0,0,0.00
2013-5-15,86.0,75.0,65.5,52.2,43.8,32.4,51,35,16,30.24,30.15,0,0,0,0.00
2013-5-16,81.9,75.2,68.7,57.4,49.4,43.8,57,41,28,30.21,30.09,0,0,0,0.00
2013-5-17,84.9,76.8,69.3,60.5,53.8,48.5,66,46,31,30.18,30.09,0,0,0,0.00
2013-5-18,87.1,78.5,72.3,68.7,57.8,45.9,78,52,24,30.18,30.12,0,0,0,0.00
2013-5-19,86.0,78.5,71.4,68.9,56.1,48.0,78,49,28,30.15,30.06,0,0,0,0.00
2013-5-20,86.4,78.3,72.5,66.3,59.8,48.6,71,55,32,30.15,30.06,0,0,0,0.00
2013-5-21,85.3,76.9,70.2,67.9,60.0,52.1,81,58,33,30.09,30.01,0,0,0,0.00
2013-5-22,85.8,77.5,70.3,68.8,60.9,51.9,80,59,33,30.04,29.98,0,0,0,0.00
2013-5-23,85.6,79.0,72.9,68.8,61.9,53.2,81,58,34,30.09,29.98,0,0,0,0.00
2013-5-24,87.6,80.3,74.1,69.5,62.4,52.2,78,57,31,30.15,30.04,0,0,0,0.00
2013-5-25,90.0,81.8,74.7,63.6,51.0,39.8,67,38,18,30.24,30.12,0,0,0,0.00
2013-5-26,86.4,77.4,69.1,53.9,44.4,32.0,56,34,16,30.27,30.18,0,0,0,0.00
2013-5-27,89.1,78.4,68.4,57.5,48.5,39.8,67,38,19,30.24,30.09,0,0,0,0.00
2013-5-28,89.4,77.7,71.6,74.9,61.2,50.9,88,60,29,30.21,30.09,0,0,0,0.00
2013-5-29,86.4,77.3,72.0,69.7,62.5,52.8,85,63,33,30.15,30.09,0,0,0,0.00
2013-5-30,74.5,73.8,73.4,67.2,65.5,62.5,80,75,68,30.15,30.09,0,0,0,0.00
2013-5-31,82.8,79.0,73.8,68.0,64.9,58.3,79,63,45,30.12,30.09,0,0,0,0.00
2013-6-1,84.9,77.6,73.8,72.7,66.9,59.8,83,71,45,30.12,30.04,0,0,0,0.00
2013-6-2,88.0,79.8,73.2,73.4,66.2,57.9,85,66,37,30.06,29.98,0,0,0,0.00
2013-6-3,82.0,78.1,75.6,73.1,68.9,63.7,81,74,55,30.06,29.98,0,0,0,0.00
2013-6-4,83.8,78.5,75.2,69.1,66.1,59.1,79,66,46,30.09,30.01,0,0,0,0.00
2013-6-5,82.8,77.3,73.6,70.3,66.3,57.5,84,70,43,30.06,29.95,0,0,0,0.00
2013-6-6,77.5,75.6,73.8,74.1,71.3,65.5,92,87,67,29.95,29.77,0,0,0,0.00
2013-6-7,84.2,79.2,74.8,70.7,66.4,61.5,80,66,48,30.04,29.80,0,0,0,0.00
2013-6-8,87.1,79.2,73.2,70.4,67.6,60.9,80,69,45,30.15,30.04,0,0,0,0.00
2013-6-9,86.9,79.0,72.9,74.1,66.8,58.6,84,68,39,30.15,30.09,0,0,0,0.00
2013-6-10,90.0,81.6,76.1,72.1,65.6,54.8,80,61,33,30.15,30.09,0,0,0,0.00
2013-6-11,90.0,81.4,76.8,71.9,66.2,59.2,78,61,38,30.15,30.09,0,0,0,0.00
2013-6-12,91.0,82.1,74.5,68.1,62.3,55.1,75,53,32,30.15,30.09,0,0,0,0.00
2013-6-13,89.2,83.1,79.2,70.1,64.8,57.8,74,56,35,30.12,30.01,0,0,0,0.00
2013-6-14,80.8,80.1,79.5,65.2,64.7,64.1,60,60,59,30.04,29.98,0,0,0,0.00
2013-6-15,80.2,80.2,80.1,66.5,66.1,65.8,63,62,62,30.04,29.98,0,0,0,0.00
2013-6-17,92.5,86.4,78.4,72.0,62.0,55.3,77,47,29,30.15,29.98,0,0,0,0.00
2013-6-18,91.8,84.9,78.6,71.1,64.2,57.3,76,52,32,30.15,30.06,0,0,0,0.00
2013-6-19,91.8,84.5,77.4,72.4,64.5,57.6,77,53,33,30.12,30.06,0,0,0,0.00
2013-6-20,92.3,83.8,77.9,67.6,61.1,52.6,65,48,27,30.18,30.06,0,0,0,0.00
2013-6-21,91.2,82.2,75.9,66.6,60.4,53.4,71,50,29,30.18,30.09,0,0,0,0.00
2013-6-22,91.8,82.2,75.0,68.5,59.1,52.2,76,49,28,30.18,30.12,0,0,0,0.00
2013-6-23,90.5,80.0,75.2,70.0,64.3,55.2,80,61,31,30.21,30.12,0,0,0,0.00
2013-6-24,90.9,81.3,75.0,72.1,64.9,57.9,82,61,34,30.24,30.15,0,0,0,0.00
2013-6-25,92.1,82.5,76.5,70.1,63.4,56.1,77,55,30,30.21,30.09,0,0,0,0.00
2013-6-26,90.5,80.4,75.6,72.7,65.2,58.3,82,62,35,30.15,30.06,0,0,0,0.00
2013-6-27,91.4,82.1,74.5,69.2,62.7,57.2,77,54,32,30.12,30.04,0,0,0,0.00
2013-6-28,89.1,82.4,75.9,73.9,65.9,55.1,83,60,34,30.04,29.95,0,0,0,0.00
2013-7-2,87.6,78.7,73.6,74.0,67.7,61.8,84,70,43,30.18,30.06,0,0,0,0.00
2013-7-3,83.7,76.2,75.0,71.4,68.6,59.2,82,78,44,30.21,30.12,0,0,0,0.00
2013-7-4,90.0,77.5,73.4,73.7,69.2,63.6,84,77,43,30.21,30.15,0,0,0,0.00
2013-7-5,85.8,84.1,83.1,68.4,67.2,65.0,61,57,50,30.18,30.18,0,0,0,0.00
2013-7-6,89.6,81.0,77.2,74.1,72.1,61.3,85,76,39,30.18,30.12,0,0,0,0.00
2013-7-7,91.0,83.9,79.0,71.5,61.6,54.3,77,49,30,30.18,29.98,0,0,0,0.00
2013-7-8,88.2,82.1,76.6,70.8,64.7,57.6,78,57,37,30.24,30.12,0,0,0,0.00
2013-7-9,93.0,82.1,76.3,70.8,63.8,53.0,77,57,27,30.24,30.12,0,0,0,0.00
2013-7-10,90.0,80.2,74.7,71.0,64.8,53.5,80,63,31,30.15,30.06,0,0,0,0.00
2013-7-11,86.5,79.5,75.4,71.8,67.7,62.1,82,68,45,30.12,30.01,0,0,0,0.00
2013-7-12,90.0,81.4,76.5,72.1,65.7,56.2,79,62,33,30.04,29.98,0,0,0,0.00
2013-7-13,84.7,78.2,75.0,73.1,69.1,63.3,82,74,50,30.06,29.98,0,0,0,0.00
2013-7-14,87.3,78.4,74.1,73.9,68.4,62.3,82,72,45,30.12,30.01,0,0,0,0.00
2013-7-15,89.8,79.4,74.3,69.6,65.1,55.9,79,64,32,30.18,30.06,0,0,0,0.00
2013-7-16,82.8,76.9,74.8,71.2,67.2,60.9,81,73,50,30.21,30.12,0,0,0,0.00
2013-7-17,87.8,77.8,74.5,71.9,65.9,56.5,81,69,36,30.21,30.15,0,0,0,0.00
2013-7-18,83.5,77.2,73.6,70.3,66.7,60.0,80,71,48,30.18,30.12,0,0,0,0.00
2013-7-19,86.7,77.9,72.7,73.3,67.3,60.9,83,71,44,30.18,30.12,0,0,0,0.00
2013-7-20,90.3,80.4,74.1,73.6,65.2,56.3,80,62,35,30.18,30.09,0,0,0,0.00
2013-7-21,91.4,82.6,75.9,73.1,66.0,59.4,80,59,35,30.21,30.12,0,0,0,0.00
2013-7-22,90.5,84.8,78.1,74.1,66.2,61.0,80,56,39,30.21,30.15,0,0,0,0.00
2013-7-23,88.9,83.7,79.2,69.7,63.7,57.0,72,52,35,30.18,30.06,0,0,0,0.00
2013-7-24,89.2,84.2,80.8,65.8,62.2,56.2,60,49,34,30.09,30.01,0,0,0,0.00
2013-7-25,88.5,83.7,80.6,71.3,66.1,58.6,73,57,39,30.09,29.98,0,0,0,0.00
2013-7-26,89.6,83.2,78.3,73.9,68.5,61.9,81,63,41,30.09,30.01,0,0,0,0.00
2013-7-27,90.7,84.3,79.5,72.1,63.5,52.6,77,52,28,30.06,30.01,0,0,0,0.00
2013-7-28,90.0,82.7,78.4,72.9,64.8,57.4,78,56,35,30.12,30.01,0,0,0,0.00
2013-7-29,92.7,82.8,75.9,71.2,62.2,52.0,79,53,27,30.21,30.09,0,0,0,0.00
2013-7-30,92.7,82.1,76.8,71.7,63.8,53.0,79,57,27,30.24,30.15,0,0,0,0.00
2013-7-31,87.4,80.7,77.2,73.9,68.4,59.1,82,68,41,30.21,30.09,0,0,0,0.00
2013-8-1,90.7,82.6,76.6,71.8,64.4,56.1,79,57,34,30.12,30.04,0,0,0,0.00
2013-8-2,91.6,83.3,76.5,70.3,63.8,56.3,77,54,31,30.12,30.01,0,0,0,0.00
2013-8-3,91.0,84.5,78.8,69.7,62.3,56.3,70,48,33,30.18,30.06,0,0,0,0.00
2013-8-4,87.4,84.1,81.3,71.6,66.5,61.8,68,56,45,30.18,30.09,0,0,0,0.00
2013-8-5,90.9,85.8,81.7,70.4,65.1,57.2,68,51,35,30.09,30.04,0,0,0,0.00
2013-8-6,90.3,84.5,81.1,71.9,67.5,61.1,71,58,38,30.06,29.98,0,0,0,0.00
2013-8-7,89.1,81.4,77.7,71.9,67.6,57.4,79,64,38,30.04,29.98,0,0,0,0.00
2013-8-8,91.8,81.2,76.3,74.0,67.2,56.1,83,65,33,30.09,29.98,0,0,0,0.00
2013-8-9,87.8,79.3,74.8,71.9,67.4,56.4,81,69,35,30.12,30.04,0,0,0,0.00
2013-8-10,87.1,78.9,73.6,76.5,70.5,65.3,84,76,50,30.18,30.09,0,0,0,0.00
2013-8-11,91.6,82.7,75.9,73.0,67.1,60.6,82,62,36,30.21,30.12,0,0,0,0.00
2013-8-12,92.3,84.2,77.4,72.6,66.5,58.5,80,58,33,30.21,30.06,0,0,0,0.00
2013-8-13,93.6,84.6,78.1,69.9,62.2,55.7,73,49,30,30.12,30.04,0,0,0,0.00
2013-8-14,94.5,85.1,79.2,74.0,65.1,54.6,79,54,28,30.09,30.01,0,0,0,0.00
2013-8-15,89.2,82.1,78.1,70.1,65.0,59.2,71,57,38,30.12,30.04,0,0,0,0.00
2013-8-16,90.3,83.6,79.3,70.3,65.5,60.0,73,56,37,30.12,30.04,0,0,0,0.00
2013-8-17,91.9,82.0,75.9,75.1,66.1,54.2,82,62,30,30.15,30.06,0,0,0,0.00
2013-8-18,88.7,80.0,75.2,74.6,69.2,60.4,83,71,39,30.18,30.09,0,0,0,0.00
2013-8-19,88.7,78.5,74.5,75.1,69.1,60.2,84,74,39,30.12,30.04,0,0,0,0.00
2013-8-20,88.9,78.0,74.3,74.0,68.8,60.2,84,74,40,30.15,30.06,0,0,0,0.00
2013-8-21,89.8,79.9,76.5,73.5,68.6,55.7,82,71,33,30.15,30.06,0,0,0,0.00
2013-8-22,87.1,78.8,75.2,75.2,70.0,62.5,84,75,45,30.15,30.04,0,0,0,0.00
2013-8-23,88.7,79.5,75.4,76.4,69.4,58.3,86,73,38,30.09,30.04,0,0,0,0.00
2013-8-24,90.1,80.3,75.4,73.9,67.5,58.1,83,68,38,30.18,30.06,0,0,0,0.00
2013-8-25,86.5,78.8,74.7,73.9,67.9,57.3,84,71,40,30.24,30.12,0,0,0,0.00
2013-8-26,88.9,79.9,75.2,71.7,66.7,56.9,81,66,35,30.21,30.06,0,0,0,0.00
2013-8-27,84.7,77.9,74.1,71.4,67.7,61.9,83,72,47,30.12,30.06,0,0,0,0.00
2013-8-28,89.4,78.0,72.5,71.0,65.5,52.8,82,68,29,30.12,30.06,0,0,0,0.00
2013-8-29,89.2,80.3,73.2,70.0,63.5,55.9,82,60,33,30.09,30.04,0,0,0,0.00
2013-8-30,88.0,82.2,78.3,72.2,65.7,57.5,78,59,36,30.06,29.98,0,0,0,0.00
2013-8-31,90.0,81.9,75.9,70.3,63.9,54.9,79,57,31,30.06,29.95,0,0,0,0.00
2013-9-1,90.9,81.8,77.2,73.0,65.2,54.9,81,60,31,30.06,29.98,0,0,0,0.00
2013-9-2,89.8,81.6,76.6,73.0,65.2,57.5,81,60,35,30.09,30.01,0,0,0,0.00
2013-9-3,91.8,82.9,77.5,73.3,64.9,54.9,81,57,30,30.09,30.01,0,0,0,0.00
2013-9-4,89.1,80.5,75.9,70.0,65.9,56.4,78,63,36,30.15,30.04,0,0,0,0.00
2013-9-5,91.8,80.0,75.6,74.0,67.6,54.6,82,68,30,30.15,30.06,0,0,0,0.00
2013-9-6,90.9,80.5,75.2,74.6,67.7,53.5,84,68,31,30.12,30.04,0,0,0,0.00
2013-9-7,88.9,79.4,72.9,70.7,64.2,52.6,81,63,31,30.09,29.98,0,0,0,0.00
2013-9-8,89.6,81.2,74.8,69.6,62.5,52.9,79,56,29,30.04,29.95,0,0,0,0.00
2013-9-9,90.9,82.5,76.6,70.3,60.4,50.8,78,50,27,30.09,29.98,0,0,0,0.00
2013-9-10,91.6,83.1,76.6,69.9,57.9,42.9,78,47,20,30.15,30.04,0,0,0,0.00
2013-9-11,90.5,81.9,76.3,70.0,60.0,50.7,75,50,27,30.12,30.06,0,0,0,0.00
2013-9-12,90.9,81.4,75.9,70.9,61.7,54.3,78,53,30,30.09,29.98,0,0,0,0.00
2013-9-13,90.5,81.2,74.3,69.3,61.7,54.6,80,54,31,29.98,29.92,0,0,0,0.00
2013-9-14,90.9,82.8,77.0,71.5,62.3,53.6,79,53,29,30.06,29.95,0,0,0,0.00
2013-9-15,91.8,79.8,74.7,73.0,65.4,53.6,82,65,29,30.18,30.04,0,0,0,0.00
2013-9-16,87.8,77.6,73.9,73.6,68.4,58.1,83,75,40,30.15,30.06,0,0,0,0.00
2013-9-17,88.7,77.9,73.8,72.6,66.9,53.9,84,71,32,30.12,30.04,0,0,0,0.00
2013-9-18,88.2,77.6,74.7,71.9,68.3,56.7,83,74,35,30.09,30.04,0,0,0,0.00
2013-9-19,87.6,78.3,73.8,73.3,66.7,57.9,84,70,38,30.12,30.04,0,0,0,0.00
2013-9-20,88.5,80.4,74.5,68.4,60.2,49.9,78,54,27,30.09,29.98,0,0,0,0.00
2013-9-21,89.2,80.4,73.6,65.3,57.6,52.1,69,48,29,30.01,29.86,0,0,0,0.00
2013-9-22,89.4,82.3,77.2,71.8,65.0,57.0,78,58,35,29.95,29.83,0,0,0,0.00
2013-9-23,80.2,78.1,76.1,74.6,71.6,68.1,84,81,67,30.04,29.89,0,0,0,0.00
2013-9-24,77.7,76.1,74.8,72.8,71.2,70.0,86,85,84,30.04,29.95,0,0,0,0.00
2013-9-25,79.0,75.3,72.0,73.7,69.4,66.9,87,82,75,30.01,29.89,0,0,0,0.00
2013-9-26,88.0,81.9,77.5,75.1,68.0,58.7,84,65,38,29.95,29.86,0,0,0,0.00
2013-9-27,86.2,78.3,73.2,67.4,61.2,53.1,78,58,33,30.04,29.92,0,0,0,0.00
2013-9-28,88.2,78.8,73.2,67.5,60.8,52.5,78,57,30,30.06,29.98,0,0,0,0.00
2013-9-29,88.5,79.1,72.9,64.6,58.1,45.8,72,52,23,30.06,29.98,0,0,0,0.00
2013-9-30,89.1,79.8,73.2,68.0,59.7,51.6,77,53,29,30.06,29.98,0,0,0,0.00
2013-10-1,88.9,80.5,74.3,69.2,59.6,50.8,79,52,28,30.12,30.04,0,0,0,0.00
2013-10-2,86.5,80.2,74.7,66.8,59.2,52.5,75,51,32,30.12,30.04,0,0,0,0.00
2013-10-3,88.3,80.3,74.7,64.5,60.0,52.7,69,51,31,30.15,30.04,0,0,0,0.00
2013-10-4,87.1,80.9,76.3,68.9,62.1,51.5,76,55,30,30.15,30.06,0,0,0,0.00
2013-10-5,87.3,80.2,75.2,65.8,60.4,55.1,70,52,37,30.12,30.04,0,0,0,0.00
2013-10-6,90.0,80.6,74.3,70.2,61.3,51.1,80,55,28,30.09,29.95,0,0,0,0.00
2013-10-7,86.9,79.8,75.7,72.2,67.2,61.3,83,67,44,29.95,29.86,0,0,0,0.00
2013-10-8,86.5,81.2,77.0,67.4,62.2,56.2,65,53,36,30.04,29.89,0,0,0,0.00
2013-10-9,79.9,75.6,72.0,63.6,59.4,54.4,67,58,43,30.12,30.01,0,0,0,0.00
2013-10-10,84.7,75.2,68.9,61.2,57.4,50.6,74,56,31,30.12,30.06,0,0,0,0.00
2013-10-11,86.9,76.8,70.0,64.2,55.0,43.3,77,50,22,30.12,30.04,0,0,0,0.00
2013-10-12,78.1,73.0,70.3,60.5,53.6,48.9,68,51,36,30.12,30.04,0,0,0,0.00
2013-10-13,85.5,77.2,68.9,62.8,49.3,40.2,71,40,21,30.12,30.04,0,0,0,0.00
2013-10-14,85.1,76.5,70.2,62.9,53.6,44.1,72,47,24,30.12,30.01,0,0,0,0.00
2013-10-15,82.9,75.5,70.9,65.2,58.8,51.9,77,57,40,30.06,29.98,0,0,0,0.00
2013-10-16,83.7,75.8,71.4,66.4,60.9,53.6,78,62,39,30.04,30.01,0,0,0,0.00
2013-10-17,86.0,77.3,71.4,66.6,59.6,50.0,79,57,30,30.04,29.98,0,0,0,0.00
2013-10-18,87.8,78.7,72.3,69.6,61.8,51.1,82,60,29,30.06,29.98,0,0,0,0.00
2013-10-19,88.5,79.5,74.5,70.4,65.3,51.9,79,64,30,30.04,29.95,0,0,0,0.00
2013-10-20,86.5,79.1,75.2,73.0,65.9,57.1,84,66,37,30.04,29.95,0,0,0,0.00
2013-10-21,86.4,78.7,74.5,71.4,64.4,53.5,83,64,33,30.06,29.98,0,0,0,0.00
2013-10-22,86.4,78.1,73.4,70.5,66.4,60.4,81,69,43,30.01,29.92,0,0,0,0.00
2013-10-23,78.8,75.0,72.3,69.1,54.2,33.3,82,53,22,30.06,29.89,0,0,0,0.00
2013-10-24,72.5,69.4,66.2,42.4,34.8,27.6,41,28,23,30.18,30.04,0,0,0,0.00
2013-10-25,69.3,65.6,64.2,53.2,46.6,42.3,67,51,41,30.21,30.04,0,0,0,0.00